Wind_Speed
35 36 36 36 37 37 37 38 38 38 39 39 39 40 40 41 42 43 44 45 45 45 46 46 47 48 49 50 51 52 53 54 54 51 51 51 51 51 50 51 51 50 49
35 36 36 37 37 37 38 38 39 39 40 40 40 41 41 42 42 43 44 45 45 45 46 47 47 49 49 50 51 52 52 53 52 50 49 48 48 47 47 47 47 46 44
35 36 36 37 37 38 38 39 39 40 40 40 40 40 41 42 42 43 44 44 44 45 46 47 48 49 49 50 50 51 51 51 50 49 47 46 45 45 44 43 43 42 41
35 35 36 36 37 37 38 39 39 39 39 40 40 41 41 42 42 43 43 44 44 45 46 47 47 48 48 48 48 48 48 48 47 46 44 43 42 41 41 40 39 38 37
34 35 35 36 36 37 37 38 38 38 39 39 40 40 41 41 42 43 43 44 44 45 46 46 46 46 46 46 46 46 46 46 45 43 42 41 40 38 37 37 36 34 33
35 35 35 35 35 36 36 36 37 37 37 38 39 40 41 42 43 44 44 44 45 45 45 44 44 44 44 45 45 45 44 44 43 41 40 39 37 36 35 34 32 31 31
34 35 35 34 35 35 35 35 36 36 37 38 39 41 42 43 44 44 44 44 44 44 43 42 42 42 43 43 43 43 42 42 41 39 38 38 35 33 33 32 30 29 28
33 34 34 34 34 35 35 35 35 37 38 38 39 41 42 43 43 43 42 42 42 42 41 41 41 42 42 41 40 40 39 38 38 37 37 35 34 32 31 30 28 27 25
32 33 33 34 34 34 34 35 35 36 37 38 40 41 42 42 41 41 40 40 40 40 40 40 40 40 40 40 39 38 37 36 36 36 35 33 32 32 31 28 26 25 22
31 32 33 34 34 34 35 35 35 36 37 38 39 40 40 39 38 38 39 39 39 38 38 37 37 38 38 38 37 36 35 34 34 33 31 30 31 30 28 26 24 22 21
32 32 33 34 34 35 35 36 36 37 38 38 39 38 37 37 37 38 38 37 36 35 35 34 35 35 35 35 35 35 34 34 33 31 29 29 28 26 24 23 21 21 19
32 33 33 33 34 35 35 36 36 36 37 37 36 36 35 35 35 35 35 34 34 34 33 32 32 32 32 32 32 32 32 32 30 28 27 27 25 23 22 21 20 20 18
33 33 32 33 33 33 34 35 35 35 35 35 35 34 33 33 33 32 32 31 31 32 31 31 31 31 31 31 31 30 30 29 28 26 25 23 22 21 20 19 18 17 16
33 33 33 32 32 33 33 34 33 33 33 32 32 31 31 31 31 31 31 30 30 30 30 30 30 31 30 30 29 29 28 27 25 23 22 20 20 19 18 17 15 14 14
33 33 33 33 32 32 32 31 31 31 31 31 30 29 30 30 30 29 29 29 29 30 30 29 30 29 29 28 27 26 25 24 22 20 19 19 18 17 16 15 13 12 12
33 33 33 32 32 31 30 29 29 29 29 28 28 28 28 28 28 28 27 28 28 29 29 28 28 27 27 26 24 23 23 22 20 18 17 16 16 15 14 12 12 11 11
31 31 31 30 29 29 28 29 28 27 27 26 27 27 27 27 27 26 26 27 28 28 27 27 26 26 26 24 23 22 21 19 18 17 15 14 14 13 12 11 10 10 10
29 29 28 27 27 27 27 27 26 26 26 26 26 26 26 25 25 25 26 26 26 27 26 26 25 25 24 23 21 20 19 18 16 15 14 13 13 12 11 10 10 10 10
27 27 26 26 26 26 26 26 25 25 25 26 26 25 24 24 24 25 25 26 26 26 26 26 25 24 23 21 20 19 18 16 14 13 12 12 12 11 10 9 9 9 9
25 25 24 25 25 25 25 25 25 24 24 24 24 24 23 23 23 24 25 26 26 26 25 24 23 22 21 20 18 17 15 13 13 12 12 12 11 10 10 9 9 9 9
23 23 24 24 24 24 23 23 23 23 23 23 23 22 22 22 23 24 25 26 26 25 24 23 22 20 19 18 16 14 13 12 12 12 12 12 12 11 10 9 8 8 7
22 22 22 23 23 22 22 22 22 22 22 21 21 21 21 22 23 24 25 26 25 24 22 21 20 19 18 17 15 14 13 12 12 12 12 12 11 11 10 8 8 8 7
21 21 21 22 22 21 20 20 20 20 20 20 20 21 21 22 23 24 25 25 23 22 20 19 18 17 16 15 14 13 12 12 12 11 11 11 11 10 9 8 8 8 7
20 21 21 21 21 20 20 20 20 20 19 20 20 20 21 22 23 24 24 23 22 21 19 18 17 16 15 14 13 12 11 11 11 11 10 10 9 9 8 7 7 7 6
20 20 21 21 20 20 20 19 19 19 20 20 20 21 22 23 23 23 23 22 21 19 17 17 16 15 13 12 12 11 11 11 10 9 8 8 7 7 6 6 6 6 5
20 20 20 20 19 19 19 19 19 19 19 20 21 22 23 23 23 23 22 20 19 18 17 17 15 13 12 11 11 10 9 8 8 7 7 7 6 6 6 6 5 5 4
Wind_Direction
260 261 263 264 266 268 270 272 274 277 279 279 280 281 281 283 285 286 288 290 290 291 291 292 293 294 294 295 295 296 297 297 297 297 295 294 294 293 290 288 286 285 283
259 261 263 265 267 269 270 272 275 278 279 279 280 281 282 283 285 286 289 290 291 291 292 293 294 295 295 296 297 297 297 297 298 298 296 295 294 293 292 289 286 286 284
259 262 264 265 267 269 271 273 276 277 278 279 280 282 283 284 286 288 290 290 291 292 293 294 295 295 296 297 298 298 298 298 299 298 297 296 295 294 292 289 287 285 284
260 262 264 266 268 269 272 275 276 277 279 280 281 283 284 286 288 289 290 291 291 292 294 294 295 296 297 298 298 298 299 299 300 299 299 298 297 295 292 290 289 287 285
261 263 265 267 268 271 273 275 276 278 280 281 283 284 285 287 289 291 291 292 292 293 294 295 296 297 297 298 299 299 300 300 300 300 300 300 298 295 293 292 291 288 285
261 263 266 268 269 272 274 275 277 279 280 282 283 284 286 288 290 292 292 293 294 294 295 295 296 296 297 298 299 300 301 301 301 302 301 300 299 295 294 293 292 289 285
262 264 266 268 271 274 274 276 277 279 281 283 284 285 287 289 291 292 292 293 294 295 295 296 296 296 297 298 299 300 301 302 302 301 301 301 299 297 295 293 292 290 288
263 265 267 269 272 274 275 277 279 280 282 284 285 287 289 291 292 292 293 294 295 296 296 296 295 296 297 298 298 300 301 302 301 300 301 299 297 296 294 293 292 291 289
265 266 268 270 272 273 275 277 278 281 283 285 287 290 291 291 292 292 293 295 296 297 296 295 295 296 297 298 299 300 301 301 300 300 300 298 298 296 294 293 293 292 289
266 268 270 271 272 273 275 276 278 281 284 286 289 291 291 291 291 292 294 296 297 297 296 296 296 297 298 299 300 301 301 301 301 300 299 299 299 297 293 293 292 291 287
267 269 270 272 273 274 275 277 279 282 284 287 290 292 292 292 292 293 295 296 297 297 296 297 298 299 300 300 300 301 301 301 300 298 298 299 299 296 293 291 290 290 289
268 270 272 272 273 274 276 277 279 282 285 288 291 292 293 293 294 295 296 297 297 298 298 299 300 301 302 303 303 302 302 302 300 298 299 299 298 297 292 289 289 290 288
268 270 272 272 273 275 277 278 281 283 286 288 290 291 292 294 296 297 297 296 297 298 299 301 302 302 303 303 303 303 303 303 301 299 300 300 299 297 294 291 288 285 283
267 270 271 273 274 276 278 280 282 284 286 288 290 290 292 294 295 295 296 296 297 298 299 300 301 303 304 303 304 304 304 304 302 300 300 299 299 297 295 292 287 283 281
267 270 271 272 274 276 278 280 282 284 287 288 289 291 292 293 294 295 295 296 298 298 299 300 302 303 305 305 305 305 305 305 303 300 300 300 299 296 293 289 285 283 280
267 268 269 270 272 276 279 281 284 286 287 288 290 292 293 294 295 296 297 298 298 299 300 301 302 303 305 305 305 304 305 304 302 301 300 298 297 296 293 287 282 281 282
264 265 265 268 271 275 278 282 285 286 286 288 291 294 295 295 295 296 298 299 299 301 301 301 303 304 305 306 304 304 303 301 299 300 297 296 296 296 292 287 284 282 283
262 263 264 266 270 274 278 281 283 284 285 288 292 294 295 295 296 297 299 301 302 302 302 302 303 304 305 305 303 303 302 300 299 297 295 296 295 294 292 289 287 283 285
261 261 263 267 270 273 276 280 282 284 286 289 291 293 293 294 296 298 301 304 305 304 303 302 303 303 304 304 302 300 299 296 295 293 294 297 295 291 287 285 287 288 289
261 261 262 266 271 275 278 279 281 284 287 289 290 291 292 294 296 299 302 304 305 305 303 302 302 304 304 304 302 298 295 292 294 293 293 294 292 288 284 285 290 288 284
261 261 264 268 272 276 279 280 281 284 286 288 288 289 292 294 296 300 302 305 306 305 302 301 302 302 302 301 298 293 289 291 293 291 290 289 288 286 283 285 288 284 282
262 263 267 270 273 277 278 280 283 285 286 286 286 290 293 296 298 301 304 305 305 303 301 300 300 300 300 298 293 289 288 289 289 288 289 287 286 284 279 278 282 281 282
264 266 268 270 272 274 276 279 283 285 286 284 287 291 294 297 300 302 305 307 306 304 302 302 301 298 296 293 288 285 286 286 285 285 286 286 285 283 279 276 279 282 280
264 266 268 269 271 273 276 280 283 284 286 287 290 292 295 299 301 303 305 305 304 303 299 299 299 296 294 290 285 284 284 283 282 282 282 281 280 282 280 278 279 283 279
263 265 267 269 269 271 275 280 282 284 287 290 292 294 297 300 301 302 302 302 300 299 295 295 294 291 289 287 286 285 286 283 280 280 276 275 276 277 280 281 281 282 272
264 265 266 267 268 271 275 280 283 287 290 291 295 297 298 300 301 301 299 297 296 296 295 295 291 286 284 285 285 284 281 277 275 273 272 274 274 273 277 282 282 276 243
Height
5671 5671 5671 5671 5671 5670 5669 5668 5666 5665 5663 5660 5659 5657 5655 5653 5651 5649 5646 5643 5640 5636 5632 5629 5625 5620 5616 5611 5605 5600 5594 5587 5582 5581 5577 5571 5565 5560 5555 5550 5545 5542 5540
5661 5662 5662 5661 5661 5660 5659 5658 5657 5655 5653 5651 5648 5646 5645 5642 5640 5638 5635 5632 5629 5625 5622 5618 5614 5609 5604 5599 5594 5588 5582 5576 5569 5566 5564 5559 5553 5547 5542 5537 5533 5530 5527
5652 5652 5652 5652 5651 5650 5649 5648 5646 5645 5643 5641 5639 5637 5634 5632 5630 5627 5624 5621 5618 5614 5610 5606 5602 5597 5593 5587 5582 5576 5571 5565 5558 5553 5550 5546 5541 5535 5530 5526 5522 5519 5516
5642 5642 5642 5642 5642 5641 5639 5638 5636 5635 5633 5631 5629 5626 5624 5622 5619 5617 5614 5611 5607 5604 5599 5595 5590 5586 5581 5576 5571 5565 5560 5554 5548 5543 5538 5534 5530 5524 5519 5515 5512 5509 5506
5633 5633 5633 5632 5632 5631 5629 5628 5626 5625 5623 5621 5619 5616 5614 5611 5609 5606 5603 5600 5597 5593 5588 5584 5579 5574 5569 5564 5559 5555 5549 5544 5538 5533 5529 5524 5520 5515 5510 5506 5502 5499 5497
5623 5624 5623 5623 5622 5621 5620 5618 5617 5615 5613 5611 5609 5607 5604 5601 5598 5595 5592 5589 5585 5581 5577 5573 5568 5564 5559 5554 5549 5544 5539 5533 5528 5524 5519 5515 5511 5506 5502 5497 5494 5491 5489
5614 5614 5614 5613 5613 5612 5610 5609 5608 5606 5604 5602 5599 5597 5594 5591 5588 5584 5581 5577 5574 5570 5566 5562 5558 5554 5549 5545 5540 5535 5530 5524 5519 5514 5510 5506 5502 5498 5494 5490 5487 5483 5481
5605 5605 5605 5604 5603 5602 5601 5600 5598 5596 5594 5592 5589 5587 5584 5580 5577 5573 5570 5566 5563 5559 5555 5552 5548 5544 5539 5535 5531 5526 5521 5516 5511 5507 5502 5498 5494 5490 5486 5483 5480 5477 5474
5596 5595 5595 5594 5594 5593 5591 5590 5588 5587 5585 5582 5579 5576 5573 5570 5566 5562 5559 5556 5553 5550 5546 5542 5538 5534 5530 5525 5521 5517 5513 5508 5503 5499 5494 5490 5486 5482 5479 5476 5473 5470 5468
5587 5586 5586 5585 5584 5583 5582 5581 5579 5577 5575 5572 5569 5566 5562 5559 5555 5552 5549 5547 5544 5540 5537 5532 5528 5524 5520 5516 5512 5508 5505 5501 5496 5492 5487 5483 5480 5476 5472 5470 5467 5465 5463
5577 5577 5576 5576 5575 5574 5573 5571 5569 5567 5565 5562 5559 5556 5553 5549 5546 5543 5540 5537 5534 5531 5528 5524 5520 5516 5512 5508 5503 5500 5496 5492 5488 5484 5481 5477 5473 5470 5467 5464 5462 5460 5458
5568 5568 5567 5566 5565 5564 5563 5562 5560 5557 5555 5553 5550 5547 5544 5540 5537 5534 5531 5528 5525 5522 5519 5515 5511 5508 5504 5500 5496 5492 5488 5484 5481 5477 5474 5471 5467 5464 5462 5459 5457 5455 5453
5558 5558 5558 5557 5556 5555 5554 5552 5550 5548 5546 5543 5541 5538 5535 5532 5529 5526 5523 5520 5517 5514 5510 5507 5503 5500 5496 5493 5489 5484 5481 5477 5474 5471 5468 5465 5462 5459 5457 5455 5453 5450 5449
5549 5549 5548 5548 5547 5546 5544 5543 5541 5539 5537 5535 5532 5530 5527 5525 5521 5518 5516 5513 5510 5506 5503 5500 5496 5493 5489 5485 5481 5478 5474 5470 5467 5464 5462 5459 5457 5455 5452 5450 5449 5447 5446
5539 5539 5539 5539 5538 5537 5536 5534 5532 5530 5528 5526 5524 5522 5519 5517 5514 5511 5508 5505 5502 5499 5496 5493 5489 5486 5482 5478 5475 5471 5468 5464 5461 5459 5457 5455 5452 5450 5448 5446 5445 5444 5443
5530 5530 5530 5530 5529 5528 5527 5526 5524 5522 5520 5518 5516 5514 5512 5509 5506 5503 5500 5497 5494 5492 5489 5486 5482 5479 5476 5472 5469 5466 5462 5459 5457 5454 5452 5450 5448 5446 5444 5443 5442 5441 5439
5521 5521 5521 5521 5520 5520 5519 5518 5517 5515 5512 5511 5509 5506 5504 5501 5499 5496 5494 5491 5487 5485 5482 5479 5476 5473 5469 5466 5463 5460 5457 5455 5452 5450 5448 5446 5444 5443 5441 5440 5439 5438 5437
5512 5512 5513 5513 5512 5512 5511 5510 5508 5507 5506 5504 5502 5499 5497 5495 5492 5490 5487 5484 5481 5478 5475 5472 5469 5466 5463 5460 5458 5455 5453 5450 5448 5446 5445 5443 5441 5440 5438 5437 5436 5435 5434
5504 5504 5504 5505 5504 5504 5503 5502 5501 5499 5498 5497 5495 5493 5491 5488 5486 5483 5481 5478 5475 5472 5469 5466 5463 5460 5457 5455 5452 5450 5448 5446 5445 5443 5441 5440 5438 5437 5435 5434 5433 5432 5431
5496 5497 5497 5497 5497 5496 5495 5494 5493 5492 5491 5489 5488 5486 5484 5482 5480 5478 5475 5472 5469 5466 5463 5460 5457 5455 5452 5450 5448 5446 5444 5443 5441 5440 5438 5437 5435 5434 5433 5432 5431 5430 5429
5489 5489 5490 5490 5489 5489 5488 5487 5487 5485 5484 5483 5481 5479 5478 5476 5474 5471 5469 5466 5462 5459 5457 5454 5452 5449 5447 5445 5443 5442 5440 5439 5437 5436 5435 5434 5433 5431 5430 5429 5428 5427 5427
5482 5483 5483 5483 5483 5482 5481 5481 5480 5479 5478 5477 5475 5474 5472 5470 5468 5465 5462 5459 5456 5453 5450 5448 5446 5444 5442 5441 5439 5438 5436 5435 5434 5433 5432 5431 5429 5428 5428 5427 5426 5425 5425
5476 5476 5477 5476 5476 5476 5475 5475 5474 5473 5472 5470 5469 5468 5466 5464 5462 5459 5456 5453 5450 5447 5445 5443 5441 5439 5438 5436 5435 5434 5433 5431 5430 5429 5429 5428 5427 5426 5425 5424 5424 5423 5423
5470 5470 5470 5470 5470 5470 5470 5469 5468 5467 5466 5465 5463 5462 5460 5458 5455 5453 5450 5447 5444 5442 5440 5438 5437 5435 5433 5432 5431 5430 5429 5428 5427 5426 5426 5425 5424 5423 5423 5422 5421 5421 5421
5464 5464 5464 5464 5464 5464 5464 5463 5462 5461 5460 5459 5457 5456 5454 5451 5449 5446 5444 5441 5439 5437 5435 5434 5432 5431 5429 5428 5427 5426 5425 5424 5424 5423 5423 5422 5422 5421 5421 5420 5420 5419 5419
5458 5458 5458 5458 5458 5458 5458 5457 5457 5456 5454 5453 5451 5449 5447 5445 5442 5440 5437 5435 5433 5432 5430 5429 5427 5426 5426 5425 5424 5423 5422 5421 5421 5421 5420 5420 5420 5419 5419 5419 5418 5418 5418